Hourly Weather Kandi

Today, 7 July, Tuesday

Time Temperature Precipitation Wind Pressure Humidity
00:00 +27°C° 0 mm 1 mps 736 mmHg 85%
01:00 +27°C° 0 mm 2 mps 735 mmHg 85%
02:00 +27°C° 0 mm 2 mps 735 mmHg 84%
03:00 +27°C° 0 mm 3 mps 734 mmHg 83%
04:00 +27°C° 0 mm 3 mps 734 mmHg 84%
05:00 +27°C° 0 mm 2 mps 735 mmHg 84%
06:00 +26°C° 0 mm 2 mps 735 mmHg 84%
07:00 +28°C° 0 mm 2 mps 735 mmHg 76%
08:00 +30°C° 0 mm 3 mps 736 mmHg 68%
09:00 +33°C° 0 mm 3 mps 736 mmHg 59%
10:00 +35°C° 0 mm 3 mps 736 mmHg 53%
11:00 +37°C° 0 mm 3 mps 736 mmHg 47%
12:00 +38°C° 0 mm 3 mps 735 mmHg 40%
13:00 +39°C° 0 mm 2 mps 735 mmHg 37%
14:00 +40°C° 0 mm 1 mps 734 mmHg 33%
15:00 +39°C° 0 mm 0 mps 733 mmHg 29%
16:00 +40°C° 0 mm 1 mps 733 mmHg 33%
17:00 +37°C° 0 mm 1 mps 733 mmHg 38%
18:00 +36°C° 0 mm 2 mps 733 mmHg 42%
19:00 +34°C° 0.4 mm 2 mps 734 mmHg 53%
20:00 +31°C° 0.4 mm 3 mps 734 mmHg 64%
21:00 +29°C° 0.4 mm 3 mps 735 mmHg 75%
22:00 +28°C° 0 mm 3 mps 735 mmHg 76%
23:00 +28°C° 0 mm 3 mps 735 mmHg 77%

Tomorrow, 8 July, Wednesday

Time Temperature Precipitation Wind Pressure Humidity
00:00 +28°C° 0 mm 3 mps 735 mmHg 79%
01:00 +28°C° 0 mm 3 mps 735 mmHg 80%
02:00 +27°C° 0 mm 3 mps 734 mmHg 81%
03:00 +27°C° 0 mm 3 mps 734 mmHg 81%
04:00 +27°C° 0.1 mm 3 mps 735 mmHg 83%
05:00 +26°C° 0.1 mm 3 mps 735 mmHg 84%
06:00 +26°C° 0.1 mm 3 mps 736 mmHg 86%
07:00 +28°C° 0 mm 4 mps 736 mmHg 78%
08:00 +29°C° 0 mm 4 mps 736 mmHg 70%
09:00 +32°C° 0 mm 4 mps 736 mmHg 62%
10:00 +33°C° 0 mm 4 mps 736 mmHg 57%
11:00 +34°C° 0 mm 3 mps 736 mmHg 53%
12:00 +35°C° 0 mm 2 mps 736 mmHg 48%
13:00 +35°C° 0 mm 3 mps 735 mmHg 48%
14:00 +35°C° 0 mm 3 mps 735 mmHg 48%
15:00 +36°C° 0 mm 3 mps 734 mmHg 48%
16:00 +34°C° 0 mm 2 mps 734 mmHg 52%
17:00 +32°C° 0 mm 2 mps 734 mmHg 56%
18:00 +31°C° 0 mm 2 mps 735 mmHg 60%
19:00 +30°C° 0.3 mm 2 mps 735 mmHg 66%
20:00 +29°C° 0.3 mm 2 mps 736 mmHg 72%
21:00 +28°C° 0.3 mm 2 mps 736 mmHg 79%
22:00 +27°C° 0 mm 2 mps 736 mmHg 80%
23:00 +27°C° 0 mm 2 mps 737 mmHg 82%

Day after tomorrow, 9 July, Thursday

Time Temperature Precipitation Wind Pressure Humidity
00:00 +27°C° 0 mm 2 mps 737 mmHg 83%
01:00 +26°C° 0 mm 2 mps 736 mmHg 85%
02:00 +26°C° 0 mm 2 mps 736 mmHg 87%
03:00 +26°C° 0 mm 2 mps 736 mmHg 88%
04:00 +26°C° 0 mm 2 mps 736 mmHg 88%
05:00 +25°C° 0 mm 2 mps 736 mmHg 88%
06:00 +25°C° 0 mm 2 mps 737 mmHg 88%
07:00 +27°C° 0 mm 2 mps 737 mmHg 80%
08:00 +29°C° 0 mm 2 mps 738 mmHg 71%
09:00 +31°C° 0 mm 2 mps 738 mmHg 63%
10:00 +34°C° 0 mm 2 mps 738 mmHg 55%
11:00 +36°C° 0 mm 2 mps 737 mmHg 47%
12:00 +37°C° 0 mm 1 mps 737 mmHg 40%
13:00 +37°C° 0 mm 1 mps 736 mmHg 40%
14:00 +37°C° 0 mm 1 mps 736 mmHg 40%
15:00 +36°C° 0 mm 1 mps 735 mmHg 40%
16:00 +35°C° 0 mm 1 mps 735 mmHg 44%
17:00 +34°C° 0 mm 1 mps 735 mmHg 48%
18:00 +34°C° 0 mm 2 mps 735 mmHg 52%
19:00 +32°C° 0.2 mm 2 mps 736 mmHg 59%
20:00 +30°C° 0.2 mm 2 mps 736 mmHg 66%
21:00 +29°C° 0.2 mm 2 mps 736 mmHg 73%
22:00 +28°C° 0.4 mm 2 mps 737 mmHg 77%
23:00 +28°C° 0.4 mm 2 mps 737 mmHg 81%

10 July, Friday

Time Temperature Precipitation Wind Pressure Humidity
00:00 +27°C° 0.4 mm 2 mps 737 mmHg 84%
01:00 +27°C° 0 mm 2 mps 737 mmHg 85%
02:00 +26°C° 0 mm 2 mps 736 mmHg 86%
03:00 +26°C° 0 mm 2 mps 736 mmHg 86%
04:00 +26°C° 0 mm 2 mps 736 mmHg 86%
05:00 +26°C° 0 mm 2 mps 737 mmHg 86%
06:00 +26°C° 0 mm 2 mps 737 mmHg 85%
07:00 +27°C° 0 mm 2 mps 737 mmHg 78%
08:00 +29°C° 0 mm 3 mps 738 mmHg 70%
09:00 +30°C° 0 mm 3 mps 738 mmHg 63%
10:00 +31°C° 0.2 mm 3 mps 738 mmHg 60%
11:00 +33°C° 0.2 mm 3 mps 737 mmHg 57%
12:00 +34°C° 0.2 mm 3 mps 737 mmHg 53%
13:00 +34°C° 0.3 mm 3 mps 736 mmHg 53%
14:00 +35°C° 0.3 mm 3 mps 735 mmHg 52%
15:00 +35°C° 0.3 mm 4 mps 735 mmHg 51%
16:00 +34°C° 0.1 mm 3 mps 735 mmHg 56%
17:00 +32°C° 0.1 mm 2 mps 735 mmHg 60%
18:00 +31°C° 0.1 mm 2 mps 735 mmHg 64%
19:00 +30°C° 0.1 mm 2 mps 735 mmHg 69%
20:00 +29°C° 0.1 mm 2 mps 736 mmHg 74%
21:00 +28°C° 0.1 mm 2 mps 737 mmHg 79%
22:00 +27°C° 0.3 mm 2 mps 737 mmHg 82%
23:00 +27°C° 0.3 mm 2 mps 737 mmHg 85%

11 July, Saturday

Time Temperature Precipitation Wind Pressure Humidity
00:00 +26°C° 0.3 mm 1 mps 737 mmHg 88%
01:00 +26°C° 0 mm 1 mps 737 mmHg 88%
02:00 +26°C° 0 mm 2 mps 736 mmHg 89%
03:00 +26°C° 0 mm 2 mps 736 mmHg 90%
04:00 +26°C° 2.4 mm 2 mps 737 mmHg 91%
05:00 +25°C° 2.4 mm 3 mps 737 mmHg 92%
06:00 +25°C° 2.4 mm 3 mps 737 mmHg 94%
07:00 +26°C° 0.8 mm 3 mps 737 mmHg 90%
08:00 +26°C° 0.8 mm 3 mps 738 mmHg 87%
09:00 +27°C° 0.8 mm 2 mps 738 mmHg 83%
10:00 +28°C° 0 mm 2 mps 738 mmHg 75%
11:00 +30°C° 0 mm 2 mps 737 mmHg 67%
12:00 +31°C° 0 mm 2 mps 737 mmHg 59%
13:00 +32°C° 0 mm 2 mps 736 mmHg 56%
14:00 +32°C° 0 mm 1 mps 736 mmHg 53%
15:00 +33°C° 0 mm 1 mps 735 mmHg 49%
16:00 +32°C° 0 mm 1 mps 735 mmHg 55%
17:00 +31°C° 0 mm 2 mps 735 mmHg 61%
18:00 +29°C° 0 mm 2 mps 735 mmHg 67%
19:00 +28°C° 0 mm 2 mps 735 mmHg 71%
20:00 +27°C° 0 mm 2 mps 736 mmHg 76%
21:00 +27°C° 0 mm 2 mps 737 mmHg 80%
22:00 +26°C° 0 mm 2 mps 736 mmHg 81%
23:00 +26°C° 0 mm 2 mps 736 mmHg 81%

12 July, Sunday

Time Temperature Precipitation Wind Pressure Humidity
00:00 +26°C° 0 mm 1 mps 736 mmHg 82%
01:00 +26°C° 0 mm 2 mps 736 mmHg 83%
02:00 +25°C° 0 mm 2 mps 736 mmHg 84%
03:00 +25°C° 0 mm 2 mps 736 mmHg 85%
04:00 +25°C° 0 mm 2 mps 736 mmHg 85%
05:00 +25°C° 0 mm 2 mps 736 mmHg 86%
06:00 +25°C° 0 mm 2 mps 736 mmHg 86%
07:00 +26°C° 0 mm 2 mps 737 mmHg 79%
08:00 +28°C° 0 mm 2 mps 738 mmHg 72%
09:00 +30°C° 0 mm 2 mps 738 mmHg 64%
10:00 +31°C° 0 mm 2 mps 738 mmHg 59%
11:00 +34°C° 0 mm 2 mps 738 mmHg 53%
12:00 +36°C° 0 mm 2 mps 738 mmHg 47%
13:00 +35°C° 0.6 mm 2 mps 737 mmHg 52%
14:00 +34°C° 0.6 mm 3 mps 737 mmHg 56%
15:00 +33°C° 0.6 mm 3 mps 736 mmHg 60%
16:00 +33°C° 0.1 mm 3 mps 736 mmHg 63%
17:00 +31°C° 0.1 mm 3 mps 735 mmHg 66%
18:00 +30°C° 0.1 mm 2 mps 735 mmHg 69%
19:00 +29°C° 0 mm 2 mps 736 mmHg 71%
20:00 +29°C° 0 mm 2 mps 736 mmHg 73%
21:00 +28°C° 0 mm 2 mps 737 mmHg 75%
22:00 +28°C° 0 mm 2 mps 737 mmHg 76%
23:00 +27°C° 0 mm 2 mps 737 mmHg 78%
Show more